Main page
Satellite images Climate Cyclones Lightning AirportsFAQ Languages Contact Newsletter About
Weather : Europe Africa North America South America Asia Australia-Oceania Others

, Phrae, Phrae Airport

48330

latitude: , longitude: Thailand, elevation: 18-10N m


METAR: VTCP 160900Z VRB02KT 9999 FEW022 30/12 Q1009